Location: Pinhey's Point
(45.4411°N, 75.9539°W)
Time: 15:32:34
(UTC-05:00)

Iridium 65 - Visible Passes

Search period start: 02 March 2015 00:00
Search period end: 12 March 2015 01:00
Orbit: 776 x 779 km, 86.4° (Epoch: 01 March)

Date Brightness Start Highest point End Pass type
(mag) Time Alt. Az. Time Alt. Az. Time Alt. Az.
02 Mar 7.9 02:44:40 19° ENE 02:44:40 19° ENE 02:47:14 10° NNE visible
02 Mar 6.2 04:25:09 39° NW 04:25:09 39° NW 04:28:48 10° N visible
03 Mar 8.4 02:11:27 11° ENE 02:11:27 11° ENE 02:12:09 10° NE visible
03 Mar 6.4 03:51:56 42° N 03:51:56 42° N 03:55:23 10° N visible
03 Mar 7.4 05:32:25 12° WNW 05:32:25 12° WNW 05:33:41 10° NW visible
04 Mar 7.0 03:18:42 33° NNE 03:18:42 33° NNE 03:21:43 10° NNE visible
04 Mar 7.0 04:59:11 19° NW 04:59:11 19° NW 05:01:39 10° NNW visible
05 Mar 7.7 02:45:26 22° NE 02:45:26 22° NE 02:47:48 10° NNE visible
05 Mar 6.7 04:25:54 27° NW 04:25:54 27° NW 04:28:44 10° NNW visible
06 Mar 8.3 02:12:08 14° NE 02:12:08 14° NE 02:13:24 10° NE visible
06 Mar 6.7 03:52:37 32° NNW 03:52:37 32° NNW 03:55:28 10° N visible
07 Mar 7.0 03:19:18 30° NNE 03:19:18 30° NNE 03:21:57 10° N visible
07 Mar 7.4 04:59:47 13° NW 04:59:47 13° NW 05:01:04 10° NW visible
08 Mar 7.6 03:45:58 24° NNE 03:45:58 24° NNE 03:48:11 10° NNE visible
08 Mar 7.2 05:26:27 19° NW 05:26:27 19° NW 05:28:32 10° NNW visible
09 Mar 8.1 03:12:37 16° NE 03:12:37 16° NE 03:14:06 10° NNE visible
09 Mar 7.0 04:53:06 25° NNW 04:53:06 25° NNW 04:55:26 10° N visible
10 Mar 8.5 02:39:16 10° NE 02:39:16 10° NE 02:39:21 10° NE visible
10 Mar 7.1 04:19:44 27° N 04:19:44 27° N 04:22:04 10° N visible
11 Mar 7.5 03:46:22 24° NNE 03:46:22 24° NNE 03:48:27 10° N visible
11 Mar 7.5 05:26:50 14° NW 05:26:50 14° NW 05:28:08 10° NNW visible
